Time,TemperatureF,DewpointF,PressureIn,WindDirection,WindDirectionDegrees,WindSpeedMPH,WindSpeedGustMPH,Humidity,HourlyPrecipIn,Conditions,Clouds,dailyrainin,SoftwareType,DateUTC
2013-02-11 00:00:00,40.8,31.1,23.27,ENE,75,2.0,3.0,68,0.00,,,0.00,VWS V13.01,2013-02-11 05:00:00,
2013-02-11 00:05:00,40.8,31.4,23.27,ESE,123,3.0,6.0,69,0.00,,,0.00,VWS V13.01,2013-02-11 05:05:00,
2013-02-11 00:10:00,40.9,31.9,23.27,ENE,59,2.0,9.0,70,0.00,,,0.00,VWS V13.01,2013-02-11 05:10:00,
2013-02-11 00:15:00,41.0,32.0,23.27,East,90,1.0,7.0,70,0.00,,,0.00,VWS V13.01,2013-02-11 05:15:00,
2013-02-11 00:20:00,41.1,32.4,23.27,SE,130,10.0,11.0,71,0.00,,,0.00,VWS V13.01,2013-02-11 05:20:00,
2013-02-11 00:25:00,41.1,32.8,23.27,East,83,3.0,12.0,72,0.00,,,0.00,VWS V13.01,2013-02-11 05:25:00,
2013-02-11 00:30:00,41.0,32.7,23.27,ESE,112,3.0,11.0,72,0.00,,,0.00,VWS V13.01,2013-02-11 05:30:00,
2013-02-11 00:35:00,41.0,33.0,23.27,SE,125,3.0,10.0,73,0.00,,,0.00,VWS V13.01,2013-02-11 05:35:00,
2013-02-11 00:40:00,40.8,33.2,23.27,East,87,2.0,8.0,74,0.00,,,0.00,VWS V13.01,2013-02-11 05:40:00,
2013-02-11 00:45:00,40.7,33.4,23.27,ESE,122,4.0,6.0,75,0.00,,,0.00,VWS V13.01,2013-02-11 05:45:00,
2013-02-11 00:50:00,40.4,33.8,23.27,ENE,77,1.0,7.0,77,0.00,,,0.00,VWS V13.01,2013-02-11 05:50:00,
2013-02-11 00:55:00,40.3,33.7,23.27,ESE,109,4.0,7.0,77,0.00,,,0.00,VWS V13.01,2013-02-11 05:55:00,
2013-02-11 01:00:00,40.3,34.3,23.27,South,176,3.0,4.0,79,0.01,,,0.01,VWS V13.01,2013-02-11 06:00:00,
2013-02-11 01:05:00,40.4,35.0,23.27,ENE,69,3.0,3.0,81,0.01,,,0.01,VWS V13.01,2013-02-11 06:05:00,
2013-02-11 01:10:00,40.2,34.8,23.27,SE,140,4.0,5.0,81,0.01,,,0.01,VWS V13.01,2013-02-11 06:10:00,
2013-02-11 01:15:00,40.1,35.1,23.27,SE,131,2.0,6.0,82,0.01,,,0.01,VWS V13.01,2013-02-11 06:15:00,
2013-02-11 01:20:00,40.1,35.4,23.27,East,81,0.0,3.0,83,0.02,,,0.02,VWS V13.01,2013-02-11 06:20:00,
2013-02-11 01:25:00,40.3,35.9,23.27,East,89,0.0,4.0,84,0.02,,,0.02,VWS V13.01,2013-02-11 06:25:00,
2013-02-11 01:30:00,40.2,35.5,23.27,ESE,122,1.0,4.0,83,0.02,,,0.02,VWS V13.01,2013-02-11 06:30:00,
2013-02-11 01:35:00,40.0,35.6,23.27,ESE,114,2.0,3.0,84,0.02,,,0.02,VWS V13.01,2013-02-11 06:35:00,
2013-02-11 01:40:00,40.1,36.0,23.27,SE,142,2.0,3.0,85,0.02,,,0.02,VWS V13.01,2013-02-11 06:40:00,
2013-02-11 01:45:00,39.8,35.4,23.27,ESE,108,2.0,5.0,84,0.02,,,0.02,VWS V13.01,2013-02-11 06:45:00,
2013-02-11 01:50:00,39.6,35.5,23.27,East,94,1.0,5.0,85,0.02,,,0.02,VWS V13.01,2013-02-11 06:50:00,
2013-02-11 01:55:00,39.4,35.6,23.27,SE,129,0.0,5.0,86,0.02,,,0.02,VWS V13.01,2013-02-11 06:55:00,
2013-02-11 02:00:00,39.5,35.7,23.27,ESE,114,1.0,3.0,86,0.03,,,0.03,VWS V13.01,2013-02-11 07:00:00,
2013-02-11 02:06:00,39.2,35.4,23.27,SE,132,1.0,4.0,86,0.02,,,0.03,VWS V13.01,2013-02-11 07:06:00,
2013-02-11 02:11:00,39.5,36.0,23.27,ESE,118,1.0,2.0,87,0.02,,,0.03,VWS V13.01,2013-02-11 07:11:00,
2013-02-11 02:16:00,40.0,36.5,23.27,NE,53,1.0,4.0,87,0.02,,,0.03,VWS V13.01,2013-02-11 07:16:00,
2013-02-11 02:21:00,40.1,36.5,23.27,ENE,74,0.0,4.0,87,0.02,,,0.03,VWS V13.01,2013-02-11 07:21:00,
2013-02-11 02:26:00,39.6,36.1,23.27,ENE,59,3.0,5.0,87,0.01,,,0.03,VWS V13.01,2013-02-11 07:26:00,
2013-02-11 02:31:00,39.3,36.0,23.27,ENE,74,0.0,5.0,88,0.01,,,0.03,VWS V13.01,2013-02-11 07:31:00,
2013-02-11 02:36:00,39.6,36.3,23.27,ENE,73,1.0,4.0,88,0.01,,,0.03,VWS V13.01,2013-02-11 07:36:00,
2013-02-11 02:41:00,39.3,36.0,23.27,SE,144,2.0,4.0,88,0.01,,,0.03,VWS V13.01,2013-02-11 07:41:00,
2013-02-11 02:46:00,39.2,36.2,23.27,East,85,1.0,4.0,89,0.01,,,0.03,VWS V13.01,2013-02-11 07:46:00,
2013-02-11 02:50:00,39.5,36.5,23.27,East,89,2.0,5.0,89,0.02,,,0.04,VWS V13.01,2013-02-11 07:50:00,
2013-02-11 02:55:00,39.3,36.3,23.27,NE,56,2.0,4.0,89,0.02,,,0.04,VWS V13.01,2013-02-11 07:55:00,
2013-02-11 03:00:00,39.4,36.4,23.27,ENE,65,2.0,4.0,89,0.02,,,0.04,VWS V13.01,2013-02-11 08:00:00,
2013-02-11 03:05:00,39.3,36.3,23.27,ENE,67,0.0,5.0,89,0.01,,,0.04,VWS V13.01,2013-02-11 08:05:00,
2013-02-11 03:10:00,39.3,36.3,23.27,East,82,0.0,5.0,89,0.01,,,0.04,VWS V13.01,2013-02-11 08:10:00,
2013-02-11 03:15:00,39.0,36.0,23.27,ESE,117,0.0,5.0,89,0.01,,,0.04,VWS V13.01,2013-02-11 08:15:00,
2013-02-11 03:20:00,39.4,36.7,23.27,ENE,74,1.0,3.0,90,0.02,,,0.05,VWS V13.01,2013-02-11 08:20:00,
2013-02-11 03:25:00,39.4,36.7,23.27,ESE,121,0.0,3.0,90,0.02,,,0.05,VWS V13.01,2013-02-11 08:25:00,
2013-02-11 03:31:00,39.2,36.5,23.27,SE,129,0.0,3.0,90,0.02,,,0.05,VWS V13.01,2013-02-11 08:31:00,
2013-02-11 03:36:00,39.0,36.3,23.27,ESE,108,1.0,3.0,90,0.03,,,0.06,VWS V13.01,2013-02-11 08:36:00,
2013-02-11 03:41:00,39.3,36.6,23.27,ESE,105,1.0,2.0,90,0.03,,,0.06,VWS V13.01,2013-02-11 08:41:00,
2013-02-11 03:46:00,39.3,36.6,23.27,SE,130,3.0,4.0,90,0.04,,,0.07,VWS V13.01,2013-02-11 08:46:00,
2013-02-11 03:51:00,39.0,36.3,23.27,ENE,60,0.0,5.0,90,0.05,,,0.08,VWS V13.01,2013-02-11 08:51:00,
2013-02-11 03:56:00,38.9,36.2,23.27,East,88,3.0,5.0,90,0.04,,,0.08,VWS V13.01,2013-02-11 08:56:00,
2013-02-11 04:01:00,39.2,36.8,23.27,ENE,75,0.0,3.0,91,0.05,,,0.09,VWS V13.01,2013-02-11 09:01:00,
2013-02-11 04:06:00,39.4,37.0,23.27,East,86,0.0,2.0,91,0.05,,,0.09,VWS V13.01,2013-02-11 09:06:00,
2013-02-11 04:11:00,39.0,36.3,23.27,ESE,123,1.0,3.0,90,0.06,,,0.10,VWS V13.01,2013-02-11 09:11:00,
2013-02-11 04:16:00,39.1,36.7,23.27,ESE,113,1.0,4.0,91,0.07,,,0.11,VWS V13.01,2013-02-11 09:16:00,
2013-02-11 04:21:00,38.9,36.5,23.27,East,98,3.0,9.0,91,0.08,,,0.13,VWS V13.01,2013-02-11 09:21:00,
2013-02-11 04:26:00,39.1,36.7,23.27,ESE,120,1.0,5.0,91,0.08,,,0.13,VWS V13.01,2013-02-11 09:26:00,
2013-02-11 04:31:00,39.3,36.9,23.27,ENE,76,1.0,3.0,91,0.09,,,0.14,VWS V13.01,2013-02-11 09:31:00,
2013-02-11 04:36:00,39.6,37.2,23.27,East,99,0.0,3.0,91,0.08,,,0.14,VWS V13.01,2013-02-11 09:36:00,
2013-02-11 04:41:00,39.1,36.7,23.27,ENE,74,2.0,3.0,91,0.09,,,0.15,VWS V13.01,2013-02-11 09:41:00,
2013-02-11 04:46:00,39.1,36.7,23.27,ESE,117,1.0,4.0,91,0.09,,,0.15,VWS V13.01,2013-02-11 09:46:00,
2013-02-11 04:51:00,39.3,36.9,23.27,ESE,113,2.0,3.0,91,0.08,,,0.15,VWS V13.01,2013-02-11 09:51:00,
2013-02-11 04:56:00,39.2,36.8,23.27,East,92,2.0,4.0,91,0.08,,,0.16,VWS V13.01,2013-02-11 09:56:00,
2013-02-11 05:01:00,39.2,36.8,23.27,East,79,0.0,4.0,91,0.08,,,0.16,VWS V13.01,2013-02-11 10:01:00,
2013-02-11 05:06:00,39.1,36.7,23.27,ESE,111,0.0,3.0,91,0.07,,,0.16,VWS V13.01,2013-02-11 10:06:00,
2013-02-11 05:11:00,39.3,37.2,23.27,SE,131,1.0,3.0,92,0.07,,,0.16,VWS V13.01,2013-02-11 10:11:00,
2013-02-11 05:16:00,39.2,36.8,23.27,SSE,159,0.0,4.0,91,0.06,,,0.16,VWS V13.01,2013-02-11 10:16:00,
2013-02-11 05:21:00,39.3,37.2,23.27,ESE,117,0.0,3.0,92,0.06,,,0.17,VWS V13.01,2013-02-11 10:21:00,
2013-02-11 05:26:00,39.6,37.5,23.27,ESE,122,2.0,3.0,92,0.04,,,0.17,VWS V13.01,2013-02-11 10:26:00,
2013-02-11 05:31:00,39.6,37.5,23.27,ESE,107,1.0,2.0,92,0.04,,,0.18,VWS V13.01,2013-02-11 10:31:00,
2013-02-11 05:36:00,39.6,37.5,23.27,East,98,1.0,3.0,92,0.04,,,0.18,VWS V13.01,2013-02-11 10:36:00,
2013-02-11 05:41:00,39.7,37.6,23.27,SE,145,1.0,5.0,92,0.04,,,0.18,VWS V13.01,2013-02-11 10:41:00,
2013-02-11 05:46:00,39.6,37.5,23.27,ESE,105,2.0,2.0,92,0.03,,,0.18,VWS V13.01,2013-02-11 10:46:00,
2013-02-11 05:51:00,39.5,37.1,23.27,SSE,157,2.0,3.0,91,0.04,,,0.19,VWS V13.01,2013-02-11 10:51:00,
2013-02-11 05:56:00,39.3,36.9,23.27,SE,130,2.0,6.0,91,0.05,,,0.20,VWS V13.01,2013-02-11 10:56:00,
2013-02-11 06:01:00,39.3,37.2,23.27,SE,130,1.0,4.0,92,0.04,,,0.20,VWS V13.01,2013-02-11 11:01:00,
2013-02-11 06:06:00,39.6,37.5,23.27,NE,56,0.0,2.0,92,0.05,,,0.21,VWS V13.01,2013-02-11 11:06:00,
2013-02-11 06:11:00,39.4,37.3,23.27,ESE,105,1.0,5.0,92,0.06,,,0.22,VWS V13.01,2013-02-11 11:11:00,
2013-02-11 06:16:00,39.3,37.2,23.27,East,95,2.0,4.0,92,0.06,,,0.22,VWS V13.01,2013-02-11 11:16:00,
2013-02-11 06:21:00,39.2,37.1,23.27,ESE,123,2.0,4.0,92,0.06,,,0.22,VWS V13.01,2013-02-11 11:21:00,
2013-02-11 06:26:00,39.5,37.4,23.27,East,98,0.0,6.0,92,0.05,,,0.22,VWS V13.01,2013-02-11 11:26:00,
2013-02-11 06:31:00,39.5,37.4,23.27,South,188,0.0,4.0,92,0.05,,,0.22,VWS V13.01,2013-02-11 11:31:00,
2013-02-11 06:36:00,39.4,37.3,23.27,South,182,0.0,6.0,92,0.04,,,0.22,VWS V13.01,2013-02-11 11:36:00,
2013-02-11 06:41:00,39.3,37.2,23.27,ESE,114,1.0,5.0,92,0.04,,,0.22,VWS V13.01,2013-02-11 11:41:00,
2013-02-11 06:46:00,39.4,37.3,23.27,East,90,4.0,4.0,92,0.04,,,0.22,VWS V13.01,2013-02-11 11:46:00,
2013-02-11 06:51:00,39.4,37.3,23.27,East,96,0.0,4.0,92,0.04,,,0.22,VWS V13.01,2013-02-11 11:51:00,
2013-02-11 06:56:00,39.6,37.5,23.27,East,101,1.0,4.0,92,0.03,,,0.22,VWS V13.01,2013-02-11 11:56:00,
2013-02-11 07:01:00,39.7,37.6,23.27,ESE,117,0.0,3.0,92,0.02,,,0.22,VWS V13.01,2013-02-11 12:01:00,
2013-02-11 07:06:00,39.6,37.5,23.27,ESE,119,1.0,4.0,92,0.02,,,0.22,VWS V13.01,2013-02-11 12:06:00,
2013-02-11 07:11:00,39.7,37.6,23.27,East,92,0.0,6.0,92,0.00,,,0.22,VWS V13.01,2013-02-11 12:11:00,
2013-02-11 07:16:00,39.7,37.6,23.27,East,96,1.0,4.0,92,0.00,,,0.22,VWS V13.01,2013-02-11 12:16:00,
2013-02-11 07:21:00,39.8,37.7,23.27,East,101,5.0,9.0,92,0.00,,,0.22,VWS V13.01,2013-02-11 12:21:00,
2013-02-11 07:26:00,39.9,37.8,23.27,SSE,159,1.0,5.0,92,0.00,,,0.22,VWS V13.01,2013-02-11 12:26:00,
2013-02-11 07:31:00,40.0,37.9,23.27,East,94,1.0,4.0,92,0.00,,,0.22,VWS V13.01,2013-02-11 12:31:00,
2013-02-11 07:36:00,40.0,37.9,23.27,SE,128,2.0,5.0,92,0.00,,,0.22,VWS V13.01,2013-02-11 12:36:00,
2013-02-11 07:41:00,40.2,38.1,23.27,SE,131,9.0,11.0,92,0.00,,,0.22,VWS V13.01,2013-02-11 12:41:00,
2013-02-11 07:46:00,40.0,37.9,23.27,ESE,102,7.0,9.0,92,0.00,,,0.22,VWS V13.01,2013-02-11 12:46:00,
2013-02-11 07:51:00,40.1,38.0,23.27,East,98,2.0,9.0,92,0.00,,,0.22,VWS V13.01,2013-02-11 12:51:00,
2013-02-11 07:56:00,40.0,37.9,23.27,SE,132,2.0,5.0,92,0.00,,,0.22,VWS V13.01,2013-02-11 12:56:00,
2013-02-11 08:01:00,40.2,38.1,23.27,ESE,107,2.0,9.0,92,0.00,,,0.22,VWS V13.01,2013-02-11 13:01:00,
2013-02-11 08:06:00,40.2,38.1,23.27,East,92,4.0,9.0,92,0.00,,,0.22,VWS V13.01,2013-02-11 13:06:00,
2013-02-11 08:11:00,40.2,38.1,23.27,SE,134,5.0,9.0,92,0.00,,,0.22,VWS V13.01,2013-02-11 13:11:00,
2013-02-11 08:16:00,40.2,38.1,23.27,East,100,3.0,8.0,92,0.00,,,0.22,VWS V13.01,2013-02-11 13:16:00,
2013-02-11 08:21:00,40.4,38.3,23.27,ENE,60,3.0,5.0,92,0.00,,,0.22,VWS V13.01,2013-02-11 13:21:00,
2013-02-11 08:26:00,40.5,38.4,23.27,ESE,103,3.0,6.0,92,0.00,,,0.22,VWS V13.01,2013-02-11 13:26:00,
2013-02-11 08:31:00,40.8,38.9,23.27,ESE,113,2.0,3.0,93,0.00,,,0.22,VWS V13.01,2013-02-11 13:31:00,
2013-02-11 08:36:00,41.1,39.2,23.27,East,81,2.0,4.0,93,0.00,,,0.22,VWS V13.01,2013-02-11 13:36:00,
2013-02-11 08:41:00,41.1,39.0,23.27,ESE,110,4.0,6.0,92,0.00,,,0.22,VWS V13.01,2013-02-11 13:41:00,
2013-02-11 08:46:00,41.1,39.0,23.27,SE,125,3.0,9.0,92,0.00,,,0.22,VWS V13.01,2013-02-11 13:46:00,
2013-02-11 08:51:00,41.3,39.2,23.27,East,101,0.0,5.0,92,0.00,,,0.22,VWS V13.01,2013-02-11 13:51:00,
2013-02-11 08:56:00,41.5,39.6,23.27,East,97,2.0,5.0,93,0.00,,,0.22,VWS V13.01,2013-02-11 13:56:00,
2013-02-11 09:01:00,41.7,39.8,23.27,East,82,1.0,7.0,93,0.00,,,0.22,VWS V13.01,2013-02-11 14:01:00,
2013-02-11 09:06:00,41.8,39.9,23.27,SSE,161,3.0,10.0,93,0.00,,,0.22,VWS V13.01,2013-02-11 14:06:00,
2013-02-11 09:11:00,41.8,39.9,23.27,SSE,150,0.0,6.0,93,0.00,,,0.22,VWS V13.01,2013-02-11 14:11:00,
2013-02-11 09:16:00,42.0,40.1,23.27,SSE,151,2.0,3.0,93,0.00,,,0.22,VWS V13.01,2013-02-11 14:16:00,
2013-02-11 09:21:00,42.1,40.0,23.27,SE,137,1.0,5.0,92,0.00,,,0.22,VWS V13.01,2013-02-11 14:21:00,
2013-02-11 09:26:00,42.2,40.3,23.27,SSE,161,2.0,4.0,93,0.00,,,0.22,VWS V13.01,2013-02-11 14:26:00,
2013-02-11 09:31:00,42.2,40.3,23.27,East,88,1.0,4.0,93,0.00,,,0.22,VWS V13.01,2013-02-11 14:31:00,
2013-02-11 09:36:00,42.3,40.4,23.27,East,89,2.0,4.0,93,0.00,,,0.22,VWS V13.01,2013-02-11 14:36:00,
2013-02-11 09:41:00,42.2,40.3,23.27,East,94,0.0,6.0,93,0.00,,,0.22,VWS V13.01,2013-02-11 14:41:00,
2013-02-11 09:46:00,42.5,40.6,23.27,East,96,0.0,4.0,93,0.00,,,0.22,VWS V13.01,2013-02-11 14:46:00,
2013-02-11 09:51:00,42.7,40.8,23.27,SSE,156,1.0,4.0,93,0.00,,,0.22,VWS V13.01,2013-02-11 14:51:00,
2013-02-11 09:56:00,42.8,40.9,23.27,ESE,103,0.0,4.0,93,0.00,,,0.22,VWS V13.01,2013-02-11 14:56:00,
2013-02-11 10:01:00,42.7,40.5,23.27,ESE,119,0.0,6.0,92,0.00,,,0.22,VWS V13.01,2013-02-11 15:01:00,
2013-02-11 10:06:00,42.5,40.3,23.27,ESE,107,2.0,7.0,92,0.00,,,0.22,VWS V13.01,2013-02-11 15:06:00,
2013-02-11 10:11:00,42.4,40.5,23.27,East,93,3.0,10.0,93,0.00,,,0.22,VWS V13.01,2013-02-11 15:11:00,
2013-02-11 10:16:00,42.6,40.4,23.27,ESE,113,5.0,7.0,92,0.00,,,0.22,VWS V13.01,2013-02-11 15:16:00,
2013-02-11 10:21:00,42.8,40.9,23.27,South,176,3.0,6.0,93,0.00,,,0.22,VWS V13.01,2013-02-11 15:21:00,
2013-02-11 10:26:00,43.0,41.1,23.27,South,169,2.0,8.0,93,0.00,,,0.22,VWS V13.01,2013-02-11 15:26:00,
2013-02-11 10:31:00,43.3,41.4,23.27,ESE,102,4.0,7.0,93,0.00,,,0.22,VWS V13.01,2013-02-11 15:31:00,
2013-02-11 10:36:00,43.4,41.5,23.27,SE,134,2.0,10.0,93,0.00,,,0.22,VWS V13.01,2013-02-11 15:36:00,
2013-02-11 10:41:00,43.6,41.7,23.27,ESE,109,5.0,11.0,93,0.00,,,0.22,VWS V13.01,2013-02-11 15:41:00,
2013-02-11 10:46:00,43.6,41.7,23.27,SE,126,1.0,11.0,93,0.00,,,0.22,VWS V13.01,2013-02-11 15:46:00,
2013-02-11 10:51:00,43.7,41.8,23.27,SE,129,2.0,6.0,93,0.00,,,0.22,VWS V13.01,2013-02-11 15:51:00,
2013-02-11 10:56:00,43.8,41.9,23.27,SSE,159,7.0,7.0,93,0.00,,,0.22,VWS V13.01,2013-02-11 15:56:00,
2013-02-11 11:01:00,43.9,42.0,23.27,East,80,2.0,3.0,93,0.00,,,0.22,VWS V13.01,2013-02-11 16:01:00,
2013-02-11 11:06:00,44.0,42.1,23.27,East,82,5.0,6.0,93,0.00,,,0.22,VWS V13.01,2013-02-11 16:06:00,
2013-02-11 11:11:00,44.2,42.3,23.27,ESE,120,4.0,4.0,93,0.00,,,0.22,VWS V13.01,2013-02-11 16:11:00,
2013-02-11 11:16:00,44.4,42.5,23.27,ESE,123,5.0,6.0,93,0.00,,,0.22,VWS V13.01,2013-02-11 16:16:00,
2013-02-11 11:21:00,44.4,42.5,23.27,SSE,153,2.0,2.0,93,0.00,,,0.22,VWS V13.01,2013-02-11 16:21:00,
2013-02-11 11:26:00,44.6,42.7,23.27,South,183,7.0,9.0,93,0.00,,,0.22,VWS V13.01,2013-02-11 16:26:00,
2013-02-11 11:31:00,44.7,42.8,23.27,SSW,192,5.0,5.0,93,0.00,,,0.22,VWS V13.01,2013-02-11 16:31:00,
2013-02-11 11:36:00,44.7,42.8,23.27,SE,138,4.0,5.0,93,0.00,,,0.22,VWS V13.01,2013-02-11 16:36:00,
2013-02-11 11:41:00,44.7,42.8,23.27,SSE,149,1.0,2.0,93,0.00,,,0.22,VWS V13.01,2013-02-11 16:41:00,
2013-02-11 11:46:00,44.9,43.0,23.27,ESE,105,3.0,3.0,93,0.00,,,0.22,VWS V13.01,2013-02-11 16:46:00,
2013-02-11 11:51:00,44.9,43.0,23.27,SE,142,2.0,3.0,93,0.00,,,0.22,VWS V13.01,2013-02-11 16:51:00,
2013-02-11 11:56:00,45.0,43.1,23.27,South,180,5.0,6.0,93,0.00,,,0.22,VWS V13.01,2013-02-11 16:56:00,
2013-02-11 12:01:00,45.0,43.4,22.49,SSE,153,7.0,7.0,94,0.00,,,0.22,VWS V13.01,2013-02-11 17:01:00,
2013-02-11 12:06:00,45.3,43.7,22.49,ESE,109,3.0,3.0,94,0.00,,,0.22,VWS V13.01,2013-02-11 17:06:00,
2013-02-11 12:11:00,45.8,43.9,22.49,ENE,78,2.0,2.0,93,0.00,,,0.22,VWS V13.01,2013-02-11 17:11:00,
2013-02-11 12:16:00,45.7,44.1,22.49,South,170,5.0,5.0,94,0.00,,,0.22,VWS V13.01,2013-02-11 17:16:00,
2013-02-11 12:21:00,45.6,43.7,22.49,ESE,102,5.0,6.0,93,0.00,,,0.22,VWS V13.01,2013-02-11 17:21:00,
2013-02-11 12:26:00,45.6,43.7,22.49,SSW,192,2.0,3.0,93,0.00,,,0.22,VWS V13.01,2013-02-11 17:26:00,
2013-02-11 12:31:00,45.8,44.2,22.49,ESE,122,7.0,7.0,94,0.00,,,0.22,VWS V13.01,2013-02-11 17:31:00,
2013-02-11 12:36:00,46.1,44.5,22.49,ESE,109,6.0,6.0,94,0.00,,,0.22,VWS V13.01,2013-02-11 17:36:00,
2013-02-11 12:41:00,46.2,44.6,22.49,ESE,103,0.0,1.0,94,0.00,,,0.22,VWS V13.01,2013-02-11 17:41:00,
2013-02-11 12:46:00,46.2,44.3,22.49,SSE,150,4.0,4.0,93,0.00,,,0.22,VWS V13.01,2013-02-11 17:46:00,
2013-02-11 12:51:00,46.3,44.7,22.49,SSE,153,2.0,3.0,94,0.00,,,0.22,VWS V13.01,2013-02-11 17:51:00,
2013-02-11 12:56:00,46.5,44.9,22.49,SE,136,6.0,7.0,94,0.00,,,0.22,VWS V13.01,2013-02-11 17:56:00,
2013-02-11 13:01:00,46.8,45.2,22.49,SE,138,1.0,1.0,94,0.00,,,0.22,VWS V13.01,2013-02-11 18:01:00,
2013-02-11 13:06:00,46.9,45.3,22.49,South,173,4.0,6.0,94,0.00,,,0.22,VWS V13.01,2013-02-11 18:06:00,
2013-02-11 13:11:00,47.0,45.4,22.49,SE,125,6.0,9.0,94,0.00,,,0.22,VWS V13.01,2013-02-11 18:11:00,
2013-02-11 13:16:00,47.2,45.6,22.49,East,86,1.0,1.0,94,0.00,,,0.22,VWS V13.01,2013-02-11 18:16:00,
2013-02-11 13:21:00,47.4,45.8,22.49,East,96,4.0,6.0,94,0.00,,,0.22,VWS V13.01,2013-02-11 18:21:00,
2013-02-11 13:26:00,47.5,45.9,22.49,ESE,108,2.0,2.0,94,0.00,,,0.22,VWS V13.01,2013-02-11 18:26:00,
2013-02-11 13:31:00,47.9,46.3,22.49,SSE,167,10.0,10.0,94,0.00,,,0.22,VWS V13.01,2013-02-11 18:31:00,
2013-02-11 13:36:00,47.9,46.3,22.49,SSE,162,2.0,7.0,94,0.00,,,0.22,VWS V13.01,2013-02-11 18:36:00,
2013-02-11 13:41:00,48.0,46.4,22.49,SE,142,2.0,6.0,94,0.00,,,0.22,VWS V13.01,2013-02-11 18:41:00,
2013-02-11 13:46:00,48.2,46.6,22.49,ESE,111,2.0,3.0,94,0.00,,,0.22,VWS V13.01,2013-02-11 18:46:00,
2013-02-11 13:51:00,48.4,46.8,22.49,SSW,199,4.0,4.0,94,0.00,,,0.22,VWS V13.01,2013-02-11 18:51:00,
2013-02-11 13:56:00,48.7,47.0,22.49,ESE,106,1.0,4.0,94,0.00,,,0.22,VWS V13.01,2013-02-11 18:56:00,
2013-02-11 14:01:00,48.9,47.2,22.49,SSE,157,8.0,8.0,94,0.00,,,0.22,VWS V13.01,2013-02-11 19:01:00,
2013-02-11 14:06:00,49.2,47.5,22.49,ENE,76,6.0,6.0,94,0.00,,,0.22,VWS V13.01,2013-02-11 19:06:00,
2013-02-11 14:11:00,49.6,48.0,22.49,SE,128,3.0,4.0,94,0.00,,,0.22,VWS V13.01,2013-02-11 19:11:00,
2013-02-11 14:16:00,49.9,48.2,22.49,ENE,78,4.0,5.0,94,0.00,,,0.22,VWS V13.01,2013-02-11 19:16:00,
2013-02-11 14:21:00,50.2,48.5,22.49,East,95,4.0,5.0,94,0.00,,,0.22,VWS V13.01,2013-02-11 19:21:00,
2013-02-11 14:26:00,50.5,48.8,22.49,East,84,2.0,3.0,94,0.00,,,0.22,VWS V13.01,2013-02-11 19:26:00,
2013-02-11 14:31:00,50.8,49.1,22.49,East,95,9.0,10.0,94,0.00,,,0.22,VWS V13.01,2013-02-11 19:31:00,
2013-02-11 14:36:00,51.1,49.4,22.49,East,90,1.0,3.0,94,0.00,,,0.22,VWS V13.01,2013-02-11 19:36:00,
2013-02-11 14:41:00,51.4,49.5,22.49,East,85,2.0,4.0,93,0.00,,,0.22,VWS V13.01,2013-02-11 19:41:00,
2013-02-11 14:46:00,51.7,49.8,22.49,SSE,154,6.0,6.0,93,0.00,,,0.22,VWS V13.01,2013-02-11 19:46:00,
2013-02-11 14:51:00,51.9,49.9,22.49,ESE,103,3.0,5.0,93,0.00,,,0.22,VWS V13.01,2013-02-11 19:51:00,
2013-02-11 14:57:00,52.1,50.1,22.49,SE,137,3.0,5.0,93,0.00,,,0.22,VWS V13.01,2013-02-11 19:57:00,
2013-02-11 15:02:00,52.2,50.0,22.49,East,90,2.0,2.0,92,0.00,,,0.22,VWS V13.01,2013-02-11 20:02:00,
2013-02-11 15:07:00,52.3,50.0,22.49,SSE,154,4.0,7.0,92,0.00,,,0.22,VWS V13.01,2013-02-11 20:07:00,
2013-02-11 15:12:00,52.4,50.2,22.49,East,80,3.0,7.0,92,0.00,,,0.22,VWS V13.01,2013-02-11 20:12:00,
2013-02-11 15:17:00,52.5,50.2,22.49,SSE,155,3.0,4.0,92,0.00,,,0.22,VWS V13.01,2013-02-11 20:17:00,
2013-02-11 15:22:00,52.7,50.2,22.49,SSE,152,6.0,6.0,91,0.00,,,0.22,VWS V13.01,2013-02-11 20:22:00,
2013-02-11 15:27:00,52.8,50.2,22.49,SE,144,1.0,3.0,91,0.00,,,0.22,VWS V13.01,2013-02-11 20:27:00,
2013-02-11 15:32:00,52.9,50.3,22.49,SSE,155,4.0,6.0,91,0.00,,,0.22,VWS V13.01,2013-02-11 20:32:00,
2013-02-11 15:37:00,53.1,50.5,22.49,ENE,72,2.0,6.0,91,0.00,,,0.22,VWS V13.01,2013-02-11 20:37:00,
2013-02-11 15:42:00,53.1,50.2,22.49,ESE,102,2.0,3.0,90,0.00,,,0.22,VWS V13.01,2013-02-11 20:42:00,
2013-02-11 15:47:00,53.3,50.5,22.49,SSW,195,3.0,4.0,90,0.00,,,0.22,VWS V13.01,2013-02-11 20:47:00,
2013-02-11 15:52:00,53.3,50.5,22.49,East,80,3.0,5.0,90,0.00,,,0.22,VWS V13.01,2013-02-11 20:52:00,
2013-02-11 15:57:00,53.4,50.5,22.49,SE,131,6.0,7.0,90,0.00,,,0.22,VWS V13.01,2013-02-11 20:57:00,
2013-02-11 16:02:00,53.6,50.7,22.49,ESE,114,6.0,7.0,90,0.00,,,0.22,VWS V13.01,2013-02-11 21:02:00,
2013-02-11 16:07:00,53.6,50.4,22.49,East,92,3.0,3.0,89,0.00,,,0.22,VWS V13.01,2013-02-11 21:07:00,
2013-02-11 16:12:00,53.7,50.5,22.49,ESE,115,3.0,4.0,89,0.00,,,0.22,VWS V13.01,2013-02-11 21:12:00,
2013-02-11 16:17:00,53.7,50.5,22.49,East,99,3.0,5.0,89,0.00,,,0.22,VWS V13.01,2013-02-11 21:17:00,
2013-02-11 16:22:00,53.7,50.5,22.49,South,183,6.0,6.0,89,0.00,,,0.22,VWS V13.01,2013-02-11 21:22:00,
2013-02-11 16:27:00,53.8,50.6,22.49,SE,130,4.0,8.0,89,0.00,,,0.22,VWS V13.01,2013-02-11 21:27:00,
2013-02-11 16:32:00,53.8,50.3,22.49,SE,146,5.0,12.0,88,0.00,,,0.22,VWS V13.01,2013-02-11 21:32:00,
2013-02-11 16:37:00,53.9,50.4,22.49,SW,215,5.0,6.0,88,0.00,,,0.22,VWS V13.01,2013-02-11 21:37:00,
2013-02-11 16:42:00,53.9,50.4,22.49,East,87,3.0,6.0,88,0.00,,,0.22,VWS V13.01,2013-02-11 21:42:00,
2013-02-11 16:47:00,53.8,50.3,22.49,East,79,2.0,10.0,88,0.00,,,0.22,VWS V13.01,2013-02-11 21:47:00,
2013-02-11 16:52:00,53.7,50.2,22.49,ENE,65,4.0,9.0,88,0.00,,,0.22,VWS V13.01,2013-02-11 21:52:00,
2013-02-11 16:57:00,53.6,50.1,22.49,SE,134,3.0,5.0,88,0.00,,,0.22,VWS V13.01,2013-02-11 21:57:00,
2013-02-11 17:02:00,53.5,50.0,22.49,ESE,102,3.0,8.0,88,0.00,,,0.22,VWS V13.01,2013-02-11 22:02:00,
2013-02-11 17:07:00,53.4,50.2,22.49,ESE,113,7.0,7.0,89,0.00,,,0.22,VWS V13.01,2013-02-11 22:07:00,
2013-02-11 17:12:00,53.4,50.2,22.49,SE,130,3.0,5.0,89,0.00,,,0.22,VWS V13.01,2013-02-11 22:12:00,
2013-02-11 17:17:00,53.4,50.2,22.49,SE,130,4.0,12.0,89,0.00,,,0.22,VWS V13.01,2013-02-11 22:17:00,
2013-02-11 17:22:00,53.4,50.2,22.49,ESE,105,3.0,5.0,89,0.00,,,0.22,VWS V13.01,2013-02-11 22:22:00,
2013-02-11 17:27:00,53.3,50.2,22.49,SE,142,6.0,9.0,89,0.00,,,0.22,VWS V13.01,2013-02-11 22:27:00,
2013-02-11 17:32:00,53.2,50.9,22.49,SE,124,2.0,5.0,92,0.00,,,0.22,VWS V13.01,2013-02-11 22:32:00,
2013-02-11 17:37:00,53.2,50.0,22.49,SE,141,3.0,6.0,89,0.00,,,0.22,VWS V13.01,2013-02-11 22:37:00,
2013-02-11 17:42:00,53.1,50.0,22.49,SE,146,4.0,5.0,89,0.00,,,0.22,VWS V13.01,2013-02-11 22:42:00,
2013-02-11 17:47:00,53.1,50.0,22.49,SSE,154,5.0,6.0,89,0.00,,,0.22,VWS V13.01,2013-02-11 22:47:00,
2013-02-11 17:52:00,53.1,50.2,22.49,South,173,5.0,7.0,90,0.00,,,0.22,VWS V13.01,2013-02-11 22:52:00,
2013-02-11 17:57:00,53.1,50.2,22.49,East,96,1.0,6.0,90,0.00,,,0.22,VWS V13.01,2013-02-11 22:57:00,
2013-02-11 18:02:00,53.1,50.2,22.49,ESE,122,2.0,6.0,90,0.00,,,0.22,VWS V13.01,2013-02-11 23:02:00,
2013-02-11 18:07:00,53.1,50.2,22.49,SE,127,4.0,7.0,90,0.00,,,0.22,VWS V13.01,2013-02-11 23:07:00,
2013-02-11 18:12:00,53.2,50.0,22.49,SE,144,4.0,4.0,89,0.00,,,0.22,VWS V13.01,2013-02-11 23:12:00,
2013-02-11 18:17:00,53.1,50.0,22.49,SE,140,3.0,3.0,89,0.00,,,0.22,VWS V13.01,2013-02-11 23:17:00,
2013-02-11 18:22:00,53.1,50.2,22.49,ESE,107,3.0,7.0,90,0.00,,,0.22,VWS V13.01,2013-02-11 23:22:00,
2013-02-11 18:27:00,53.2,50.3,22.49,SE,127,3.0,5.0,90,0.00,,,0.22,VWS V13.01,2013-02-11 23:27:00,
2013-02-11 18:32:00,53.2,50.3,22.49,East,99,3.0,4.0,90,0.00,,,0.22,VWS V13.01,2013-02-11 23:32:00,
2013-02-11 18:37:00,53.2,50.3,22.49,South,170,5.0,7.0,90,0.00,,,0.22,VWS V13.01,2013-02-11 23:37:00,
2013-02-11 18:42:00,53.2,50.3,22.49,SSE,148,0.0,5.0,90,0.00,,,0.22,VWS V13.01,2013-02-11 23:42:00,
2013-02-11 18:47:00,53.2,50.3,22.49,SE,132,2.0,3.0,90,0.00,,,0.22,VWS V13.01,2013-02-11 23:47:00,
2013-02-11 18:52:00,53.2,50.3,22.49,SE,136,4.0,9.0,90,0.00,,,0.22,VWS V13.01,2013-02-11 23:52:00,
2013-02-11 18:57:00,53.2,50.3,22.49,SE,140,1.0,3.0,90,0.00,,,0.22,VWS V13.01,2013-02-11 23:57:00,
2013-02-11 19:02:00,53.2,50.3,22.49,South,169,1.0,3.0,90,0.00,,,0.22,VWS V13.01,2013-02-12 00:02:00,
2013-02-11 19:07:00,53.2,50.3,22.49,SSE,150,5.0,5.0,90,0.00,,,0.22,VWS V13.01,2013-02-12 00:07:00,
2013-02-11 19:12:00,53.1,50.2,22.49,ESE,105,0.0,5.0,90,0.00,,,0.22,VWS V13.01,2013-02-12 00:12:00,
2013-02-11 19:17:00,53.1,50.2,22.49,SE,132,4.0,4.0,90,0.00,,,0.22,VWS V13.01,2013-02-12 00:17:00,
2013-02-11 19:22:00,53.1,50.2,22.49,East,95,1.0,5.0,90,0.00,,,0.22,VWS V13.01,2013-02-12 00:22:00,
2013-02-11 19:27:00,53.2,50.3,22.49,South,169,2.0,4.0,90,0.00,,,0.22,VWS V13.01,2013-02-12 00:27:00,
2013-02-11 19:32:00,53.2,50.3,22.49,SE,127,1.0,2.0,90,0.00,,,0.22,VWS V13.01,2013-02-12 00:32:00,
2013-02-11 19:37:00,53.2,50.3,22.49,SE,127,1.0,3.0,90,0.00,,,0.22,VWS V13.01,2013-02-12 00:37:00,
2013-02-11 19:42:00,53.1,50.2,22.49,SSE,159,3.0,3.0,90,0.00,,,0.22,VWS V13.01,2013-02-12 00:42:00,
2013-02-11 19:47:00,53.2,50.3,22.49,SE,126,1.0,2.0,90,0.00,,,0.22,VWS V13.01,2013-02-12 00:47:00,
2013-02-11 19:52:00,53.3,50.5,22.49,SSE,156,2.0,4.0,90,0.00,,,0.22,VWS V13.01,2013-02-12 00:52:00,
2013-02-11 19:57:00,53.4,50.5,22.49,SE,144,3.0,3.0,90,0.00,,,0.22,VWS V13.01,2013-02-12 00:57:00,
2013-02-11 20:02:00,53.3,50.2,22.49,SE,138,2.0,2.0,89,0.00,,,0.22,VWS V13.01,2013-02-12 01:02:00,
2013-02-11 20:07:00,53.3,50.2,22.49,SE,138,2.0,3.0,89,0.00,,,0.22,VWS V13.01,2013-02-12 01:07:00,
2013-02-11 20:12:00,53.3,50.2,22.49,SSE,163,2.0,3.0,89,0.00,,,0.22,VWS V13.01,2013-02-12 01:12:00,
2013-02-11 20:17:00,53.3,50.2,22.49,SE,125,0.0,0.0,89,0.00,,,0.22,VWS V13.01,2013-02-12 01:17:00,
2013-02-11 20:22:00,53.3,50.2,22.49,East,99,0.0,1.0,89,0.00,,,0.22,VWS V13.01,2013-02-12 01:22:00,
2013-02-11 20:27:00,53.3,50.2,22.49,East,100,0.0,1.0,89,0.00,,,0.22,VWS V13.01,2013-02-12 01:27:00,
2013-02-11 20:32:00,53.4,50.2,22.49,East,100,0.0,1.0,89,0.00,,,0.22,VWS V13.01,2013-02-12 01:32:00,
2013-02-11 20:37:00,53.4,50.2,22.49,South,190,0.0,1.0,89,0.00,,,0.22,VWS V13.01,2013-02-12 01:37:00,
2013-02-11 20:42:00,53.5,50.3,22.49,SSE,148,3.0,3.0,89,0.00,,,0.22,VWS V13.01,2013-02-12 01:42:00,
2013-02-11 20:47:00,53.5,50.0,22.49,SSE,156,0.0,1.0,88,0.00,,,0.22,VWS V13.01,2013-02-12 01:47:00,
2013-02-11 20:52:00,53.5,50.0,22.49,SSE,159,1.0,2.0,88,0.00,,,0.22,VWS V13.01,2013-02-12 01:52:00,
2013-02-11 20:57:00,53.5,50.0,22.49,SSE,159,0.0,0.0,88,0.00,,,0.22,VWS V13.01,2013-02-12 01:57:00,
2013-02-11 21:02:00,53.5,50.0,22.49,SSE,159,0.0,1.0,88,0.00,,,0.22,VWS V13.01,2013-02-12 02:02:00,
2013-02-11 21:07:00,53.5,50.0,22.49,SSE,159,0.0,1.0,88,0.00,,,0.22,VWS V13.01,2013-02-12 02:07:00,
2013-02-11 21:12:00,53.3,49.5,22.49,South,170,1.0,2.0,87,0.00,,,0.22,VWS V13.01,2013-02-12 02:12:00,
2013-02-11 21:17:00,53.2,49.7,22.49,SSE,164,0.0,1.0,88,0.00,,,0.22,VWS V13.01,2013-02-12 02:17:00,
2013-02-11 21:22:00,53.0,49.5,22.49,SSE,164,0.0,1.0,88,0.00,,,0.22,VWS V13.01,2013-02-12 02:22:00,
2013-02-11 21:27:00,52.9,49.5,22.49,SSE,167,0.0,2.0,88,0.00,,,0.22,VWS V13.01,2013-02-12 02:27:00,
2013-02-11 21:32:00,53.0,49.5,22.49,SSE,161,0.0,2.0,88,0.00,,,0.22,VWS V13.01,2013-02-12 02:32:00,
2013-02-11 21:37:00,53.0,49.5,22.49,SSE,163,0.0,2.0,88,0.00,,,0.22,VWS V13.01,2013-02-12 02:37:00,
2013-02-11 21:42:00,53.2,49.7,22.49,South,180,2.0,4.0,88,0.00,,,0.22,VWS V13.01,2013-02-12 02:42:00,
2013-02-11 21:47:00,53.4,49.6,22.49,SSW,207,1.0,2.0,87,0.00,,,0.22,VWS V13.01,2013-02-12 02:47:00,
2013-02-11 21:52:00,53.4,49.6,22.49,SSW,209,0.0,3.0,87,0.00,,,0.22,VWS V13.01,2013-02-12 02:52:00,
2013-02-11 21:57:00,53.3,49.5,22.49,SW,229,0.0,1.0,87,0.00,,,0.22,VWS V13.01,2013-02-12 02:57:00,
2013-02-11 22:02:00,52.9,48.8,22.49,SW,231,2.0,2.0,86,0.00,,,0.22,VWS V13.01,2013-02-12 03:02:00,
2013-02-11 22:07:00,52.6,48.8,22.49,SW,235,0.0,0.0,87,0.00,,,0.22,VWS V13.01,2013-02-12 03:07:00,
2013-02-11 22:12:00,52.1,48.4,22.49,SW,236,0.0,0.0,87,0.00,,,0.22,VWS V13.01,2013-02-12 03:12:00,
2013-02-11 22:17:00,51.5,47.8,22.49,SW,235,0.0,3.0,87,0.00,,,0.22,VWS V13.01,2013-02-12 03:17:00,
2013-02-11 22:22:00,51.2,47.5,22.49,SW,236,2.0,3.0,87,0.00,,,0.22,VWS V13.01,2013-02-12 03:22:00,
2013-02-11 22:27:00,51.2,48.1,22.49,WSW,238,1.0,1.0,89,0.00,,,0.22,VWS V13.01,2013-02-12 03:27:00,
2013-02-11 22:32:00,51.3,47.9,22.49,WSW,238,0.0,0.0,88,0.00,,,0.22,VWS V13.01,2013-02-12 03:32:00,
2013-02-11 22:37:00,51.2,47.8,22.49,WSW,239,0.0,0.0,88,0.00,,,0.22,VWS V13.01,2013-02-12 03:37:00,
2013-02-11 22:42:00,51.0,47.6,22.49,WSW,239,2.0,3.0,88,0.00,,,0.22,VWS V13.01,2013-02-12 03:42:00,
2013-02-11 22:47:00,51.3,48.2,22.49,WSW,239,1.0,1.0,89,0.00,,,0.22,VWS V13.01,2013-02-12 03:47:00,
2013-02-11 22:52:00,51.2,47.8,22.49,WSW,239,0.0,0.0,88,0.00,,,0.22,VWS V13.01,2013-02-12 03:52:00,
2013-02-11 22:57:00,51.0,47.6,22.49,WSW,239,1.0,3.0,88,0.00,,,0.22,VWS V13.01,2013-02-12 03:57:00,
2013-02-11 23:02:00,51.1,47.7,22.49,WSW,238,0.0,0.0,88,0.00,,,0.22,VWS V13.01,2013-02-12 04:02:00,
2013-02-11 23:07:00,51.1,47.4,22.49,WSW,238,0.0,0.0,87,0.00,,,0.22,VWS V13.01,2013-02-12 04:07:00,
2013-02-11 23:12:00,50.1,46.1,22.49,WSW,238,0.0,0.0,86,0.00,,,0.22,VWS V13.01,2013-02-12 04:12:00,
2013-02-11 23:17:00,49.4,45.7,22.49,WSW,238,0.0,0.0,87,0.00,,,0.22,VWS V13.01,2013-02-12 04:17:00,
2013-02-11 23:22:00,49.2,45.8,22.49,WSW,239,0.0,1.0,88,0.00,,,0.22,VWS V13.01,2013-02-12 04:22:00,
2013-02-11 23:28:00,49.1,45.7,22.49,WSW,238,0.0,0.0,88,0.00,,,0.22,VWS V13.01,2013-02-12 04:28:00,
2013-02-11 23:33:00,48.5,45.1,22.49,WSW,239,0.0,0.0,88,0.00,,,0.22,VWS V13.01,2013-02-12 04:33:00,
2013-02-11 23:37:00,48.1,44.7,22.49,WSW,239,0.0,0.0,88,0.00,,,0.22,VWS V13.01,2013-02-12 04:37:00,
2013-02-11 23:43:00,47.7,44.6,22.49,WSW,238,0.0,0.0,89,0.00,,,0.22,VWS V13.01,2013-02-12 04:43:00,
2013-02-11 23:47:00,47.6,43.6,22.49,WSW,249,0.0,5.0,86,0.00,,,0.22,VWS V13.01,2013-02-12 04:47:00,
2013-02-11 23:52:00,48.3,42.4,22.49,SW,225,1.0,3.0,80,0.00,,,0.00,VWS V13.01,2013-02-12 04:52:00,
2013-02-11 23:58:00,49.2,42.0,22.49,West,269,0.0,1.0,76,0.00,,,0.00,VWS V13.01,2013-02-12 04:58:00,